[[{"header":{"parameterUnit":"m.s-1","parameterCategory":1,"la1":30.2991,"la2":30.254,"lo1":-89.0895,"lo2":-89.0444,"dy":0.0017,"dx":0.0017,"nx":28,"ny":28,"refTime":"2024-08-14T03:00:00:Z","depth":0,"parameterNumber":2,"parameterNumberName":"U-component_of_WINDS"},"data":[0,0,0,0,0,0,0,0,0,0,0,0,0,0,0,0,0,0,0,0,0,0,0,0,0,0,0,0,0,0,0,0,0,0,0,0,0,0,0,0,0,0,0,0,0,0,0,0,0,0,0,0,0,0,0,0,0,0,1.9004,1.9003,0,1.8985,1.8985,1.8985,1.892,1.8919,1.8917,1.8916,1.8899,1.89,1.8901,0,0,0,0,0,0,0,0,0,0,0,0,0,1.8986,1.8986,1.9004,1.9003,1.9003,1.8985,1.8985,1.8985,1.892,1.8919,1.8917,1.8915,1.8899,1.89,1.8901,0,0,0,0,0,0,0,0,0,0,0,0,0,1.8983,1.8987,1.9004,1.8969,1.8965,1.8985,1.8985,1.8985,1.8921,1.8919,1.8916,1.8914,1.8899,1.89,1.8901,1.8954,0,0,1.8906,1.8906,0,0,0,0,0,0,0,0,1.8983,1.8984,1.8974,1.8971,1.8968,1.8953,1.8973,1.8975,1.8921,1.8938,1.8916,1.8913,1.8919,1.8919,1.892,1.8953,1.8953,1.8906,1.8907,1.8907,1.8907,0,0,0,0,0,0,0,1.8984,1.8984,1.8996,1.8974,1.897,1.8955,1.8952,1.8973,1.8941,1.8936,1.8931,1.893,1.8917,1.8919,1.8919,1.8952,1.8906,1.8907,1.8908,1.8908,1.903,1.9032,0,0,0,0,0,0,1.8988,1.8985,1.8997,1.8996,1.897,1.8957,1.8954,1.896,1.8941,1.8936,1.8932,1.8927,1.8918,1.8918,1.8918,1.898,1.8907,1.8908,1.8909,1.9028,1.903,1.9033,0,0,0,0,0,0,1.8988,1.899,1.8998,1.8989,1.8989,1.896,1.8967,1.8961,1.8962,1.8937,1.8932,1.894,1.8916,1.8916,1.8946,1.8978,1.8909,1.891,1.9025,1.9028,1.9032,1.9103,0,0,0,0,0,0,1.8988,1.899,1.9009,1.899,1.899,1.9025,1.8969,1.8962,1.8965,1.8958,1.8943,1.8939,1.8914,1.8944,1.8947,1.8979,1.8911,1.9022,1.9026,1.9031,1.9098,1.9109,1.9118,0,0,0,0,0,1.8988,1.903,1.9011,1.9012,1.9012,1.9027,1.9027,1.8997,1.8968,1.8987,1.8971,1.8939,1.8974,1.8948,1.8951,1.8983,1.9019,1.9025,1.903,1.9093,1.9106,1.9118,0,0,0,0,0,0,1.9054,1.9027,1.9005,1.9042,1.9037,1.9016,1.9039,1.9012,1.9016,1.901,1.8973,1.8971,1.9006,1.8997,1.8968,1.9034,1.8992,1.8998,1.9038,1.9051,1.9061,1.9062,1.8913,0,0,0,0,0,1.9073,1.9086,1.9062,1.9097,1.9096,1.9069,1.9074,1.9051,1.9045,1.9043,1.9029,1.9025,1.9035,1.9042,1.905,1.9096,1.9093,1.912,1.9131,1.9139,1.9145,1.917,1.9182,1.9051,1.9051,1.9051,0,0,1.9113,1.9099,1.911,1.9111,1.9104,1.912,1.9067,1.9085,1.9097,1.9046,1.9073,1.9063,1.9056,1.9094,1.9111,1.9088,1.9181,1.9146,1.9153,1.9154,1.9177,1.9189,1.9201,1.9054,1.9054,1.9053,0,0,1.9193,1.9183,1.9212,1.9207,1.9198,1.918,1.9187,1.917,1.9161,1.9188,1.915,1.9164,1.9182,1.9179,1.918,1.9261,1.9232,1.9265,1.9318,1.9343,1.9354,1.9363,1.9393,1.9404,1.9271,1.9271,1.9271,0,1.9243,1.9264,1.9231,1.9252,1.9254,1.9209,1.9239,1.9236,1.923,1.9233,1.9208,1.9231,1.9223,1.9261,1.9281,1.9283,1.9291,1.9266,1.9354,1.9363,1.9371,1.9399,1.9411,1.9275,1.9275,1.9274,1.9274,0,1.9327,1.9342,1.9367,1.9363,1.9367,1.9393,1.9365,1.9375,1.9353,1.9337,1.9366,1.9355,1.9361,1.9368,1.9346,1.9403,1.939,1.9361,1.9317,1.9388,1.9414,1.9425,1.9281,1.9279,1.9278,1.9277,0,0,1.9447,1.9425,1.9435,1.9433,1.9421,1.9433,1.9457,1.9462,1.9471,1.947,1.949,1.9507,1.948,1.9481,1.9459,1.9481,1.9548,1.9449,1.9448,1.9468,1.9611,1.9634,1.9647,1.9528,1.953,1.9532,1.9612,0,1.9524,1.9563,1.9535,1.958,1.9595,1.9552,1.9574,1.9569,1.9556,1.9568,1.9553,1.9566,1.9529,1.953,1.955,1.9535,1.9576,1.9529,1.9548,1.9549,1.9552,1.966,1.9684,1.976,1.9622,1.9624,1.9625,0,1.9618,1.9621,1.9667,1.9653,1.9658,1.9677,1.9681,1.9692,1.9687,1.9676,1.9678,1.9651,1.9675,1.9632,1.9666,1.9635,1.9641,1.9636,1.9638,1.9639,1.9592,1.9665,1.9784,1.9796,1.964,1.9639,1.9638,0,1.9703,1.9717,1.9747,1.9747,1.9731,1.9746,1.9741,1.9733,1.9738,1.9742,1.9745,1.9752,1.9755,1.9762,1.9738,1.9708,1.9775,1.973,1.9768,1.9769,1.9784,1.9783,1.9906,1.9787,1.9787,1.9787,1.9787,0,1.9791,1.9821,1.9785,1.9804,1.9837,1.9805,1.9839,1.9829,1.9823,1.984,1.9804,1.9821,1.9788,1.9802,1.9783,1.9815,1.9816,1.9809,1.9804,1.9813,1.9814,1.9816,1.9811,1.979,1.9789,1.9788,1.9788,0,1.9891,1.9868,1.9898,1.9881,1.9877,1.9903,1.9888,1.9906,1.989,1.9912,1.9916,1.9892,1.9907,1.9883,1.9895,1.9883,1.9927,1.9913,1.9929,1.9925,1.9964,1.9961,2.0094,2.011,1.998,1.9981,1.9982,0,1.9949,1.9972,1.9957,1.9966,1.9962,1.9976,1.9982,1.9952,1.996,1.9956,1.9974,1.9986,1.9993,2.0019,2.0003,2.0013,1.9999,2.0045,2.0,2.0009,2.0001,2.0,2.0003,2.0054,2.0056,2.0057,2.0058,0,2.0056,2.0044,2.0053,2.0059,2.0066,2.0069,2.007,2.0079,2.0048,2.0059,2.0073,2.0079,2.0091,2.0104,2.0109,2.0104,2.0077,2.0073,2.0082,2.0091,2.01,2.0097,1.9954,2.007,2.0068,2.0068,2.0067,2.0067,2.0137,2.0156,2.0149,2.0161,2.0158,2.016,2.0176,2.0163,2.0174,2.0181,2.0164,2.0183,2.0178,2.0183,2.0182,2.0197,2.0177,2.019,2.0194,2.0198,2.0204,2.0097,2.0198,2.0197,2.0197,2.0197,2.0196,0,2.0243,2.0237,2.0248,2.025,2.026,2.0233,2.0232,2.0243,2.026,2.0258,2.0266,2.0284,2.0296,2.0282,2.0292,2.0307,2.0295,2.0311,2.031,2.0309,2.0221,2.0212,2.0321,2.0321,2.0321,2.032,2.032,2.032,2.0299,2.0329,2.0317,2.0346,2.0339,2.0358,2.036,2.0362,2.036,2.0381,2.0391,2.0382,2.0376,2.0385,2.0396,2.0391,2.0397,2.0418,2.041,2.0327,2.0315,2.0304,2.0295,2.0419,2.0419,2.0496,2.0497,2.0498]},{"header":{"parameterUnit":"m.s-1","parameterCategory":1,"la1":30.2991,"la2":30.254,"lo1":-89.0895,"lo2":-89.0444,"dy":0.0017,"dx":0.0017,"nx":28,"ny":28,"refTime":"2024-08-14T03:00:00:Z","depth":0,"parameterNumber":3,"parameterNumberName":"V-component_of_WINDS"},"data":[0,0,0,0,0,0,0,0,0,0,0,0,0,0,0,0,0,0,0,0,0,0,0,0,0,0,0,0,0,0,0,0,0,0,0,0,0,0,0,0,0,0,0,0,0,0,0,0,0,0,0,0,0,0,0,0,0,0,-1.2657,-1.2657,0,-1.2708,-1.2709,-1.2709,-1.2717,-1.2716,-1.2716,-1.2715,-1.277,-1.2772,-1.2774,0,0,0,0,0,0,0,0,0,0,0,0,0,-1.2568,-1.257,-1.2657,-1.2657,-1.2658,-1.2708,-1.2709,-1.2709,-1.2717,-1.2716,-1.2716,-1.2715,-1.2769,-1.2772,-1.2774,0,0,0,0,0,0,0,0,0,0,0,0,0,-1.2612,-1.257,-1.2657,-1.2668,-1.2669,-1.2708,-1.2709,-1.271,-1.2717,-1.2716,-1.2715,-1.2715,-1.2769,-1.2771,-1.2774,-1.2806,0,0,-1.2783,-1.2784,0,0,0,0,0,0,0,0,-1.2609,-1.2615,-1.2665,-1.2667,-1.2669,-1.2705,-1.2698,-1.2742,-1.2717,-1.2699,-1.2715,-1.2714,-1.2749,-1.2754,-1.2765,-1.2809,-1.2811,-1.2783,-1.2785,-1.2786,-1.2787,0,0,0,0,0,0,0,-1.2606,-1.2613,-1.2677,-1.2666,-1.2668,-1.2671,-1.2677,-1.2706,-1.2727,-1.27,-1.2701,-1.2707,-1.275,-1.2762,-1.2766,-1.2812,-1.2783,-1.2786,-1.2787,-1.2789,-1.2887,-1.2888,0,0,0,0,0,0,-1.2601,-1.261,-1.2676,-1.2679,-1.2637,-1.2673,-1.2679,-1.2694,-1.2727,-1.2731,-1.2707,-1.2707,-1.2758,-1.2763,-1.2768,-1.281,-1.2786,-1.2789,-1.279,-1.2886,-1.2888,-1.2889,0,0,0,0,0,0,-1.2599,-1.2607,-1.2673,-1.2645,-1.2654,-1.2676,-1.2692,-1.2696,-1.2708,-1.2732,-1.2737,-1.2716,-1.2757,-1.2764,-1.2797,-1.2812,-1.279,-1.2793,-1.2885,-1.2887,-1.2888,-1.2892,0,0,0,0,0,0,-1.2597,-1.2606,-1.2617,-1.2645,-1.2655,-1.2701,-1.2693,-1.2697,-1.2712,-1.2712,-1.2741,-1.2745,-1.2757,-1.2793,-1.28,-1.2815,-1.2795,-1.2884,-1.2886,-1.2888,-1.289,-1.2893,-1.2895,0,0,0,0,0,-1.2593,-1.2616,-1.2618,-1.2626,-1.267,-1.2701,-1.2707,-1.272,-1.2713,-1.2726,-1.2742,-1.2745,-1.2809,-1.2796,-1.2804,-1.282,-1.2883,-1.2885,-1.2887,-1.2889,-1.2892,-1.2895,0,0,0,0,0,0,-1.259,-1.262,-1.2622,-1.2655,-1.2675,-1.2702,-1.2719,-1.2722,-1.2746,-1.2745,-1.276,-1.2766,-1.2799,-1.2813,-1.2798,-1.2854,-1.2846,-1.2849,-1.2844,-1.2847,-1.285,-1.2846,-1.2797,0,0,0,0,0,-1.2593,-1.2616,-1.2641,-1.2667,-1.2677,-1.2696,-1.271,-1.2718,-1.2741,-1.275,-1.2768,-1.279,-1.2816,-1.2832,-1.2857,-1.2892,-1.29,-1.2907,-1.291,-1.2912,-1.2915,-1.2938,-1.2942,-1.2895,-1.2895,-1.2895,0,0,-1.26,-1.2619,-1.2632,-1.2667,-1.2684,-1.2708,-1.2703,-1.2729,-1.2747,-1.2754,-1.2786,-1.2801,-1.2827,-1.2862,-1.2878,-1.2874,-1.293,-1.2914,-1.2916,-1.2918,-1.294,-1.2944,-1.2948,-1.2897,-1.2896,-1.2896,0,0,-1.2625,-1.2641,-1.2665,-1.2683,-1.2708,-1.2721,-1.2727,-1.2754,-1.2764,-1.2796,-1.2802,-1.2825,-1.2868,-1.2887,-1.2902,-1.2936,-1.294,-1.2943,-1.2957,-1.2978,-1.2982,-1.2985,-1.2999,-1.3004,-1.2947,-1.2947,-1.2947,0,-1.263,-1.2666,-1.2678,-1.2703,-1.2719,-1.2726,-1.2752,-1.2768,-1.2801,-1.2813,-1.2808,-1.2863,-1.2881,-1.2921,-1.293,-1.2941,-1.295,-1.2941,-1.298,-1.2984,-1.2987,-1.3001,-1.3006,-1.2947,-1.2947,-1.2947,-1.2947,0,-1.2673,-1.2697,-1.2714,-1.2746,-1.2763,-1.2789,-1.2806,-1.2823,-1.2829,-1.2843,-1.2878,-1.2899,-1.293,-1.2939,-1.2946,-1.2982,-1.2979,-1.2977,-1.2969,-1.2992,-1.3005,-1.301,-1.2948,-1.2947,-1.2947,-1.2947,0,0,-1.2697,-1.2735,-1.2741,-1.2757,-1.2786,-1.2806,-1.2833,-1.2862,-1.2877,-1.29,-1.2924,-1.2961,-1.2959,-1.2977,-1.2986,-1.3004,-1.3032,-1.3,-1.3001,-1.3007,-1.3076,-1.3078,-1.3084,-1.3035,-1.3036,-1.3036,-1.3074,0,-1.2727,-1.2774,-1.2786,-1.2827,-1.2851,-1.2858,-1.2882,-1.2903,-1.2917,-1.2941,-1.2956,-1.2983,-1.2978,-1.2989,-1.3007,-1.3025,-1.3047,-1.3022,-1.3059,-1.306,-1.3054,-1.3091,-1.3093,-1.3128,-1.3079,-1.308,-1.3081,0,-1.2768,-1.2791,-1.2835,-1.2863,-1.2873,-1.2894,-1.2923,-1.2945,-1.297,-1.2979,-1.2999,-1.3006,-1.3036,-1.3026,-1.3068,-1.3051,-1.3067,-1.3078,-1.308,-1.3085,-1.3073,-1.3099,-1.3139,-1.3145,-1.3089,-1.3088,-1.3087,0,-1.2784,-1.2826,-1.2858,-1.2871,-1.2904,-1.2919,-1.2933,-1.2958,-1.2975,-1.3,-1.3012,-1.3041,-1.3057,-1.3079,-1.3095,-1.3085,-1.3137,-1.3127,-1.3147,-1.3147,-1.3159,-1.3158,-1.3204,-1.3166,-1.3166,-1.3166,-1.3166,0,-1.2817,-1.2844,-1.2866,-1.2886,-1.2917,-1.2931,-1.2961,-1.2976,-1.2998,-1.3022,-1.303,-1.3053,-1.3071,-1.3097,-1.3109,-1.3144,-1.3151,-1.316,-1.3164,-1.3161,-1.316,-1.3172,-1.3171,-1.3167,-1.3167,-1.3167,-1.3167,0,-1.284,-1.2856,-1.2892,-1.292,-1.2928,-1.295,-1.2975,-1.2996,-1.301,-1.304,-1.3048,-1.3071,-1.3102,-1.3119,-1.3158,-1.3166,-1.3206,-1.3207,-1.3197,-1.3199,-1.3219,-1.3217,-1.3276,-1.3285,-1.3239,-1.3239,-1.324,0,-1.2861,-1.2882,-1.2913,-1.2929,-1.2944,-1.297,-1.2988,-1.3003,-1.3022,-1.3053,-1.307,-1.3102,-1.3127,-1.3177,-1.3197,-1.3228,-1.3231,-1.3249,-1.3235,-1.3233,-1.3234,-1.3233,-1.3236,-1.3252,-1.3252,-1.3253,-1.3253,0,-1.2897,-1.2904,-1.2929,-1.2958,-1.2979,-1.3002,-1.3025,-1.3039,-1.3058,-1.3079,-1.311,-1.313,-1.317,-1.3202,-1.3234,-1.3251,-1.3256,-1.3257,-1.3264,-1.3262,-1.3256,-1.3262,-1.3206,-1.3256,-1.3256,-1.3255,-1.3255,-1.3255,-1.2921,-1.2941,-1.2966,-1.2995,-1.3014,-1.3036,-1.3057,-1.3074,-1.31,-1.3133,-1.3141,-1.3175,-1.3201,-1.3245,-1.3262,-1.329,-1.3287,-1.3296,-1.3299,-1.3301,-1.3303,-1.325,-1.3296,-1.3296,-1.3296,-1.3296,-1.3296,0,-1.296,-1.2976,-1.3002,-1.3035,-1.3057,-1.3059,-1.3085,-1.3105,-1.3134,-1.3158,-1.3184,-1.3221,-1.3252,-1.3276,-1.3308,-1.3326,-1.3329,-1.3334,-1.3334,-1.3338,-1.3303,-1.3295,-1.3331,-1.3331,-1.3331,-1.3331,-1.3331,-1.3331,-1.2982,-1.3016,-1.3027,-1.3071,-1.3088,-1.3121,-1.3136,-1.3157,-1.3176,-1.3217,-1.3243,-1.3258,-1.3283,-1.3317,-1.3346,-1.3353,-1.3365,-1.337,-1.3377,-1.3344,-1.334,-1.3337,-1.3329,-1.3372,-1.3372,-1.341,-1.341,-1.3411]}]]